Regional Weather Roundup
Issued by NWS

Home | Current Version | Previous Version | Text Only | Print | Product List | Glossary Off
Versions: 1 2 3 4 5 6 7 8 9 10 11 12 13 14 15 16 17 18 19 20 21 22 23 24 25 26 27 28 29 30 31 32 33 34 35 36 37 38 39 40 41 42 43 44 45 46 47 48 49 50

000
ASUS43 KDTX 051010
RWRMI
MICHIGAN HOURLY REGIONAL WEATHER ROUNDUP
NATIONAL WEATHER SERVICE DETROIT/PONTIAC MI
600 AM EDT WED AUG 05 2015

NOTE: "FAIR" INDICATES FEW OR NO CLOUDS BELOW 12,000 FEET WITH NO
SIGNIFICANT WEATHER AND/OR OBSTRUCTION TO VISIBILITY.

MIZ047>049-052>055-059>063-066>070-074>076-081>083-051100-
SOUTHEAST LOWER MICHIGAN

CITY           SKY/WX    TMP DP  RH WIND       PRES   REMARKS
ADRIAN         CLEAR     54  53  97 N5        30.04R
ALMA             N/A     52  51  98 CALM      30.05S FOG
ANN ARBOR      CLEAR     54  52  93 CALM      30.03R
BAD AXE        MOCLDY    56  53  91 CALM      30.03R
DETROIT CITY   CLEAR     62  54  74 NW3       30.02R
DETROIT        CLEAR     59  54  83 W5        30.03R
FLINT          CLEAR     58  53  84 NW3       30.04R
GROSSE ILE     CLEAR     61  55  82 NW6       30.01R
HILLSDALE        N/A     55  55 100 CALM      30.04S
HOWELL         PTCLDY    54  53  96 CALM      30.04R

CITY           SKY/WX    TMP DP  RH WIND       PRES   REMARKS
JACKSON        CLEAR     56  53  90 SW3       30.04S
LAMBERTVILLE   CLEAR     57  54  90 CALM      30.03R
LANSING        CLOUDY    57  54  89 CALM      30.05R
LAPEER         NOT AVBL
MASON          CLEAR     52  51  96 CALM      30.04S
MONROE         CLEAR     57  55  92 CALM      30.02R
MT. CLEMENS    CLEAR     60  55  86 NW3       30.00R
PONTIAC        PTCLDY    60  55  83 NW7       30.02R
PORT HOPE        N/A     62  55  77 NW8G20    30.01R
PORT HURON     CLEAR     55  55 100 NW5       30.01R
TRI CITIES     MOCLDY    58  54  86 N6        30.05R
YPSILANTI      CLEAR     60  53  77 NW6       30.04R
$$
MIZ043>046-050>051-056>058-064>065-071>073-077>080-051100-
SOUTHWEST LOWER MICHIGAN

CITY           SKY/WX    TMP DP  RH WIND       PRES   REMARKS
BATTLE CREEK   CLEAR     59  57  93 N3        30.04S
BENTON HARBOR  CLEAR     56  54  93 CALM      30.03R
BIG RAPIDS     CLEAR     51  50  95 CALM      30.05R
COLDWATER      CLEAR     54  53  97 NE3       30.04S
HOLLAND        CLEAR     58  55  90 CALM      30.04S
GRAND RAPIDS   PTCLDY    58  56  93 CALM      30.04S
KALAMAZOO      CLEAR     57  54  89 CALM      30.05R
MARSHALL       CLEAR     54  53  96 CALM      30.04S
MUSKEGON       PTCLDY    60  55  83 CALM      30.04R
$$
MIZ016>042-051100-
NORTHERN LOWER MICHIGAN

CITY           SKY/WX    TMP DP  RH WIND       PRES   REMARKS
ALPENA         CLEAR     52  49  89 W5        30.02S
BEAVER ISLAND  PTCLDY    57  53  86 NW9       30.05S
BELLAIRE       CLEAR     49  47  94 CALM      30.05S
CADILLAC       FOG       49  49  98 CALM      30.05S VSB 1
CHARLEVOIX     PTCLDY    60  52  75 NW10      30.07S
FRANKFORT      SUNNY     53  52  97 CALM      30.05S
GAYLORD        CLEAR     52  51  97 CALM      30.04S
GRAYLING       CLEAR     47  46  99 CALM      30.05R FOG
HARBOR SPRINGS PTCLDY    53  50  90 NW5       30.04R
HOUGHTON LAKE  CLEAR     51  50  96 NW3       30.05S
MANISTEE       CLEAR     52  46  82 CALM      30.06R
OSCODA         CLEAR     50  49  97 NW3       30.01S
PELLSTON       CLEAR     46  44  93 CALM      30.04S
TRAVERSE CITY  CLEAR     54  51  90 CALM      30.05R
$$
MIZ007>008-015-051100-
EASTERN UPPER MICHIGAN

CITY           SKY/WX    TMP DP  RH WIND       PRES   REMARKS
KINROSS        CLEAR     46  46 100 W3        30.02S
MACKINAC ISLAN CLEAR     51  49  92 N6        30.02S
NEWBERRY       CLEAR     45  45  99 W6        30.04R
S. S. MARIE    CLEAR     52  49  89 NW3       30.01S
$$
MIZ004>006-011>014-085-051100-
CENTRAL UPPER MICHIGAN

CITY           SKY/WX    TMP DP  RH WIND       PRES   REMARKS
MANISTIQUE     CLEAR     49  47  93 NW7       30.06R
ESCANABA       CLEAR     50  46  87 NW3       30.06S
MENOMINEE      MOCLDY    54  46  76 MISG      30.06S
SAWYER-GWINN   CLEAR     44  43  95 CALM      30.07S
$$
MIZ001>003-009>011-084-051100-
WESTERN UPPER MICHIGAN

CITY           SKY/WX    TMP DP  RH WIND       PRES   REMARKS
IRON MOUNTAIN  CLEAR     44  42  93 CALM      30.08R
HOUGHTON       CLEAR     52  50  93 NW9       30.06S
COPPER HARBOR    N/A     56  52  86 W3        30.05S
IRONWOOD         N/A     43  43 100 CALM      30.08R VSB 1/2
$$

ABBREVIATIONS USED IN REMARKS
   TC - TEMPERATURE IN CELSIUS
  WCI - WIND CHILL INDEX
   HX - HEAT INDEX
  VSB - VISIBILITY




USA.gov is the U.S. government's official web portal to all federal, state and local government web resources and services.